This is the latest recevied weather packets stored in our database for station/object KE5VT. If no packets are shown the sender has not sent any weather packets the latest 10 day(s).
| Time | Temp. | Humidity | Pressure | Rain* | Wind** | Luminosity | Snow |
|---|---|---|---|---|---|---|---|
| 1778071534 | 17.78° C | 82% | 1011.1 hPa | 0 mm | - | 99 W/m² | - |
| 1778071232 | 17.22° C | 83% | 1011.1 hPa | 0 mm | - | 89 W/m² | - |
| 1778070929 | 17.22° C | 83% | 1011.1 hPa | 0 mm | - | 67 W/m² | - |
| 1778070627 | 16.67° C | 84% | 1011.2 hPa | 0 mm | - | 51 W/m² | - |
| 1778070324 | 16.67° C | 85% | 1011.4 hPa | 0 mm | - | 47 W/m² | - |
| 1778070022 | 16.67° C | 84% | 1011.3 hPa | 0 mm | - | 42 W/m² | - |
| 1778069719 | 16.67° C | 85% | 1011.3 hPa | 0 mm | - | 44 W/m² | - |
| 1778069415 | 16.67° C | 85% | 1011.5 hPa | 0 mm | - | 39 W/m² | - |
| 1778069114 | 16.67° C | 85% | 1011.4 hPa | 0 mm | - | 33 W/m² | - |
| 1778068811 | 16.67° C | 85% | 1011.2 hPa | 0 mm | - | 28 W/m² | - |
| 1778068508 | 16.67° C | 85% | 1010.8 hPa | 0 mm | - | 24 W/m² | - |
| 1778068206 | 16.67° C | 85% | 1010.7 hPa | 0 mm | - | 19 W/m² | - |
| 1778067903 | 16.67° C | 85% | 1010.5 hPa | 0 mm | - | 22 W/m² | - |
| 1778067602 | 16.67° C | 85% | 1010.7 hPa | 0 mm | - | 25 W/m² | - |
| 1778067299 | 16.11° C | 85% | 1010.6 hPa | 0 mm | - | 28 W/m² | - |
| 1778066996 | 16.11° C | 85% | 1010.8 hPa | 0 mm | - | 24 W/m² | - |
| 1778066693 | 16.11° C | 85% | 1010.7 hPa | 0 mm | - | 18 W/m² | - |
| 1778066390 | 16.11° C | 85% | 1010.6 hPa | 0 mm | - | 13 W/m² | - |
| 1778066089 | 16.11° C | 85% | 1010.5 hPa | 0 mm | - | 11 W/m² | - |
| 1778065785 | 16.11° C | 85% | 1010.3 hPa | 0 mm | - | 12 W/m² | - |
| 1778065483 | 16.11° C | 85% | 1010.2 hPa | 0 mm | - | 8 W/m² | - |
| 1778065179 | 16.11° C | 85% | 1009.9 hPa | 0 mm | - | 6 W/m² | - |
| 1778064876 | 16.11° C | 85% | 1009.9 hPa | 0 mm | - | 4 W/m² | - |
| 1778064573 | 16.11° C | 85% | 1009.9 hPa | 0 mm | - | 4 W/m² | - |
| 1778064271 | 16.11° C | 85% | 1009.8 hPa | 0 mm | - | 4 W/m² | - |
* Rain latest hour (hover to see other rain measurements)
** Current wind speed in m/s (hover to see current wind gust speed)